[[{"header":{"parameterUnit":"m.s-1","parameterCategory":1,"la1":30.2991,"la2":30.254,"lo1":-89.0895,"lo2":-89.0444,"dy":0.0017,"dx":0.0017,"nx":28,"ny":28,"refTime":"2025-12-26T03:00:00:Z","depth":0,"parameterNumber":2,"parameterNumberName":"U-component_of_WINDS"},"data":[0,0,0,0,0,0,0,0,0,0,0,0,0,0,0,0,0,0,0,0,0,0,0,0,0,0,0,0,0,0,0,0,0,0,0,0,0,0,0,0,0,0,0,0,0,0,0,0,0,0,0,0,0,0,0,0,0,0,0.4688,0.4687,0,0.4682,0.4682,0.4681,0.4639,0.4638,0.4637,0.4636,0.4631,0.4631,0.4632,0,0,0,0,0,0,0,0,0,0,0,0,0,0.4662,0.4663,0.4688,0.4687,0.4687,0.4682,0.4682,0.4681,0.4639,0.4638,0.4636,0.4635,0.463,0.4631,0.4632,0,0,0,0,0,0,0,0,0,0,0,0,0,0.4667,0.4663,0.4688,0.4665,0.4663,0.4682,0.4682,0.4681,0.4639,0.4638,0.4636,0.4635,0.463,0.4631,0.4632,0.4672,0,0,0.4636,0.4637,0,0,0,0,0,0,0,0,0.4666,0.4668,0.4669,0.4667,0.4665,0.4659,0.4671,0.4678,0.464,0.4649,0.4636,0.4634,0.4641,0.4642,0.4644,0.4671,0.4671,0.4636,0.4637,0.4638,0.4638,0,0,0,0,0,0,0,0.4666,0.4668,0.4685,0.4669,0.4666,0.4656,0.4655,0.4672,0.4654,0.4648,0.4644,0.4644,0.464,0.4643,0.4644,0.4671,0.4636,0.4637,0.4638,0.4639,0.473,0.4732,0,0,0,0,0,0,0.4669,0.4668,0.4685,0.4685,0.4662,0.4658,0.4656,0.4663,0.4654,0.4651,0.4646,0.4642,0.4642,0.4642,0.4643,0.4689,0.4638,0.4639,0.464,0.4729,0.4731,0.4732,0,0,0,0,0,0,0.4669,0.4671,0.4686,0.4675,0.4677,0.466,0.4667,0.4663,0.4666,0.4652,0.4649,0.4652,0.464,0.4641,0.4665,0.4688,0.4639,0.4641,0.4727,0.4729,0.4731,0.478,0,0,0,0,0,0,0.4668,0.4671,0.4686,0.4676,0.4677,0.4707,0.4669,0.4664,0.4668,0.4664,0.4657,0.4654,0.4639,0.4663,0.4666,0.4689,0.4642,0.4724,0.4728,0.4731,0.4777,0.4784,0.4791,0,0,0,0,0,0.4667,0.47,0.4687,0.4689,0.4695,0.4709,0.4709,0.4691,0.467,0.4685,0.4676,0.4655,0.4685,0.4666,0.4669,0.4692,0.4723,0.4727,0.473,0.4773,0.4783,0.4791,0,0,0,0,0,0,0.4713,0.4698,0.4683,0.4714,0.4713,0.4702,0.472,0.4701,0.4706,0.4702,0.4679,0.4678,0.4705,0.4701,0.468,0.473,0.47,0.4705,0.4732,0.4741,0.4747,0.4748,0.4643,0,0,0,0,0,0.4727,0.4739,0.4725,0.4753,0.4753,0.4737,0.4742,0.4728,0.4726,0.4725,0.4718,0.4717,0.4726,0.4733,0.4741,0.4775,0.4773,0.4793,0.48,0.4806,0.481,0.4829,0.4837,0.4745,0.4745,0.4745,0,0,0.4755,0.4748,0.4757,0.4762,0.476,0.4773,0.4737,0.4752,0.4762,0.4728,0.4749,0.4744,0.4741,0.4771,0.4783,0.4768,0.4835,0.4811,0.4815,0.4817,0.4834,0.4842,0.485,0.4747,0.4747,0.4746,0,0,0.4813,0.4809,0.4833,0.4831,0.4827,0.4816,0.4821,0.4813,0.4808,0.4829,0.4804,0.4815,0.4831,0.483,0.4832,0.489,0.4871,0.4893,0.4931,0.4949,0.4956,0.4962,0.4984,0.4992,0.4897,0.4898,0.4898,0,0.4849,0.4868,0.4847,0.4864,0.4867,0.4836,0.486,0.4859,0.4858,0.4861,0.4844,0.4864,0.486,0.4889,0.4903,0.4905,0.4911,0.4894,0.4957,0.4963,0.4968,0.4989,0.4997,0.49,0.49,0.49,0.49,0,0.4912,0.4926,0.4945,0.4945,0.495,0.497,0.4952,0.496,0.4945,0.4936,0.4958,0.4952,0.4958,0.4963,0.4949,0.499,0.4981,0.4961,0.4931,0.4981,0.4999,0.5007,0.4904,0.4903,0.4903,0.4902,0,0,0.5001,0.4988,0.4996,0.4996,0.4989,0.4999,0.5018,0.5024,0.5031,0.5031,0.5047,0.5061,0.5042,0.5044,0.5029,0.5045,0.5092,0.5023,0.5022,0.5037,0.5138,0.5154,0.5163,0.5079,0.508,0.5081,0.5138,0,0.5057,0.5089,0.507,0.5105,0.5117,0.5087,0.5104,0.5102,0.5093,0.5102,0.5093,0.5104,0.5077,0.5078,0.5093,0.5083,0.5112,0.5079,0.5094,0.5095,0.5096,0.5173,0.519,0.5245,0.5145,0.5147,0.5147,0,0.5128,0.5132,0.5167,0.5159,0.5163,0.5178,0.5182,0.5191,0.5188,0.5181,0.5183,0.5164,0.5182,0.5152,0.5176,0.5154,0.5159,0.5155,0.5157,0.5158,0.5125,0.5178,0.5261,0.527,0.5159,0.5158,0.5157,0,0.519,0.5203,0.5226,0.5227,0.5217,0.5229,0.5225,0.5221,0.5225,0.5228,0.5231,0.5236,0.524,0.5244,0.5227,0.5207,0.5255,0.5223,0.525,0.525,0.5262,0.5262,0.5349,0.5264,0.5263,0.5263,0.5263,0,0.5256,0.5279,0.5254,0.5268,0.5294,0.5271,0.5297,0.529,0.5286,0.5299,0.5274,0.5286,0.5263,0.5273,0.526,0.5283,0.5284,0.5279,0.5276,0.5282,0.5283,0.5286,0.5282,0.5265,0.5265,0.5265,0.5264,0,0.533,0.5314,0.5337,0.5326,0.5323,0.5343,0.5333,0.5346,0.5335,0.5352,0.5354,0.5338,0.5348,0.5332,0.534,0.5331,0.5364,0.5354,0.5365,0.5362,0.5391,0.5389,0.5483,0.5495,0.5401,0.5402,0.5403,0,0.5373,0.539,0.5381,0.5388,0.5385,0.5396,0.5401,0.538,0.5385,0.5383,0.5397,0.5405,0.5411,0.5429,0.5418,0.5425,0.5416,0.5448,0.5416,0.5423,0.5417,0.5417,0.5419,0.5455,0.5456,0.5457,0.5458,0,0.5453,0.5444,0.5451,0.5456,0.5462,0.5465,0.5466,0.5473,0.545,0.5458,0.5469,0.5473,0.5482,0.5491,0.5495,0.5491,0.5471,0.5468,0.5475,0.5482,0.5488,0.5486,0.5384,0.5466,0.5465,0.5465,0.5464,0.5464,0.5513,0.5527,0.5523,0.5532,0.553,0.5532,0.5543,0.5534,0.5542,0.5548,0.5535,0.5549,0.5545,0.5548,0.5547,0.5557,0.5543,0.5553,0.5555,0.5558,0.5563,0.5486,0.5558,0.5558,0.5557,0.5557,0.5557,0,0.5592,0.5588,0.5596,0.5598,0.5606,0.5585,0.5585,0.5593,0.5605,0.5604,0.561,0.5622,0.563,0.562,0.5626,0.5637,0.5628,0.564,0.5639,0.5639,0.5575,0.5569,0.5647,0.5647,0.5647,0.5647,0.5647,0.5647,0.5634,0.5657,0.5648,0.5669,0.5664,0.5678,0.568,0.5681,0.5679,0.5694,0.5701,0.5694,0.5689,0.5695,0.5702,0.5698,0.5703,0.5717,0.5711,0.5652,0.5643,0.5635,0.5629,0.5718,0.5718,0.5774,0.5775,0.5775]},{"header":{"parameterUnit":"m.s-1","parameterCategory":1,"la1":30.2991,"la2":30.254,"lo1":-89.0895,"lo2":-89.0444,"dy":0.0017,"dx":0.0017,"nx":28,"ny":28,"refTime":"2025-12-26T03:00:00:Z","depth":0,"parameterNumber":3,"parameterNumberName":"V-component_of_WINDS"},"data":[0,0,0,0,0,0,0,0,0,0,0,0,0,0,0,0,0,0,0,0,0,0,0,0,0,0,0,0,0,0,0,0,0,0,0,0,0,0,0,0,0,0,0,0,0,0,0,0,0,0,0,0,0,0,0,0,0,0,3.4374,3.4374,0,3.4392,3.4392,3.4392,3.435,3.4349,3.4347,3.4346,3.4362,3.4364,3.4365,0,0,0,0,0,0,0,0,0,0,0,0,0,3.4301,3.4303,3.4374,3.4374,3.4374,3.4392,3.4392,3.4392,3.435,3.4349,3.4347,3.4346,3.4361,3.4363,3.4365,0,0,0,0,0,0,0,0,0,0,0,0,0,3.4327,3.4303,3.4374,3.4356,3.4354,3.4392,3.4392,3.4392,3.4351,3.4349,3.4347,3.4345,3.4361,3.4363,3.4366,3.4421,0,0,3.4373,3.4374,0,0,0,0,0,0,0,0,3.4326,3.433,3.4358,3.4357,3.4355,3.4367,3.4372,3.4402,3.4351,3.4352,3.4346,3.4344,3.4365,3.4367,3.4375,3.4421,3.4422,3.4373,3.4375,3.4376,3.4377,0,0,0,0,0,0,0,3.4324,3.4329,3.4381,3.4358,3.4357,3.4346,3.4347,3.4377,3.4369,3.4352,3.4349,3.4352,3.4364,3.4372,3.4375,3.4422,3.4373,3.4376,3.4377,3.4378,3.4516,3.4518,0,0,0,0,0,0,3.4325,3.4328,3.438,3.4381,3.4335,3.4349,3.435,3.4365,3.4369,3.4368,3.4353,3.4349,3.4369,3.4372,3.4375,3.444,3.4376,3.4378,3.438,3.4514,3.4516,3.4519,0,0,0,0,0,0,3.4324,3.433,3.4379,3.4354,3.4359,3.4352,3.4369,3.4366,3.4375,3.437,3.4368,3.4364,3.4368,3.4372,3.441,3.444,3.4379,3.4382,3.4511,3.4514,3.4517,3.4571,0,0,0,0,0,0,3.4322,3.433,3.4351,3.4355,3.4361,3.4415,3.4371,3.4368,3.438,3.4375,3.4379,3.4378,3.4366,3.4407,3.4412,3.4443,3.4384,3.4508,3.4513,3.4516,3.4567,3.4576,3.4584,0,0,0,0,0,3.4319,3.4365,3.4352,3.4359,3.4387,3.4417,3.442,3.4407,3.4382,3.4403,3.44,3.4378,3.4436,3.4411,3.4417,3.4449,3.4506,3.4511,3.4516,3.4563,3.4574,3.4584,0,0,0,0,0,0,3.4364,3.4365,3.4351,3.44,3.4409,3.441,3.4436,3.4419,3.4434,3.4429,3.4411,3.4412,3.4454,3.4455,3.4427,3.4502,3.4467,3.4473,3.45,3.4511,3.4519,3.4518,3.4386,0,0,0,0,0,3.438,3.4405,3.4403,3.4446,3.4451,3.4443,3.4455,3.4444,3.4452,3.4456,3.4455,3.4463,3.4484,3.4497,3.4515,3.4566,3.4567,3.4591,3.46,3.4607,3.4613,3.464,3.4651,3.4535,3.4535,3.4534,0,0,3.4412,3.4416,3.4432,3.4455,3.4461,3.4486,3.4446,3.4475,3.4493,3.4459,3.4496,3.4496,3.4504,3.455,3.4569,3.4552,3.4645,3.4613,3.4619,3.4621,3.4646,3.4657,3.4667,3.4538,3.4537,3.4537,0,0,3.4485,3.449,3.4526,3.4533,3.4542,3.4537,3.4545,3.4549,3.4548,3.4585,3.4561,3.4582,3.4617,3.4624,3.4632,3.4707,3.4687,3.4713,3.4758,3.4785,3.4794,3.4802,3.483,3.484,3.4719,3.4719,3.4719,0,3.4523,3.4562,3.4547,3.4577,3.4588,3.456,3.4597,3.4603,3.4618,3.4626,3.4606,3.4649,3.4653,3.4699,3.4718,3.4725,3.4735,3.4713,3.4794,3.4802,3.481,3.4835,3.4846,3.4722,3.4722,3.4722,3.4721,0,3.4609,3.4636,3.4664,3.468,3.4694,3.4727,3.4717,3.4733,3.4721,3.4717,3.4754,3.4757,3.4776,3.4786,3.4774,3.4831,3.482,3.4798,3.4762,3.4824,3.4848,3.4858,3.4727,3.4726,3.4725,3.4724,0,0,3.471,3.4719,3.4729,3.4737,3.4745,3.4765,3.4797,3.4816,3.483,3.4841,3.4867,3.4897,3.4877,3.4886,3.4874,3.4898,3.4958,3.4872,3.4872,3.4889,3.5022,3.504,3.5052,3.4945,3.4947,3.4948,3.5022,0,3.4782,3.4839,3.4826,3.4881,3.4906,3.4879,3.4907,3.4915,3.4912,3.4932,3.4928,3.4951,3.4921,3.4927,3.4949,3.4946,3.4985,3.4941,3.4969,3.497,3.4969,3.5064,3.5083,3.5152,3.5031,3.5033,3.5034,0,3.4874,3.489,3.4948,3.4953,3.4963,3.4988,3.5005,3.5024,3.5032,3.5029,3.504,3.5023,3.5054,3.5018,3.506,3.5031,3.5041,3.5042,3.5044,3.5046,3.5006,3.507,3.5174,3.5185,3.5048,3.5047,3.5046,0,3.4943,3.4979,3.5018,3.5025,3.5032,3.505,3.5054,3.506,3.5073,3.5087,3.5095,3.5112,3.5122,3.5135,3.5124,3.5098,3.5168,3.5131,3.5166,3.5166,3.5182,3.5182,3.529,3.5188,3.5188,3.5188,3.5188,0,3.5026,3.5062,3.5049,3.5074,3.5114,3.5099,3.5139,3.5139,3.5145,3.5168,3.5145,3.5168,3.5151,3.5172,3.5163,3.52,3.5204,3.5202,3.5199,3.5204,3.5205,3.5211,3.5206,3.5191,3.519,3.519,3.5189,0,3.511,3.5103,3.5144,3.5147,3.5149,3.5179,3.5181,3.5203,3.5199,3.5229,3.5235,3.5228,3.5251,3.5241,3.5265,3.5259,3.5306,3.5297,3.5304,3.5302,3.5338,3.5335,3.5455,3.547,3.5358,3.5359,3.536,0,3.5163,3.5191,3.5198,3.5212,3.5218,3.5241,3.5254,3.524,3.5255,3.5266,3.5287,3.5309,3.5325,3.5363,3.536,3.5378,3.5369,3.541,3.5372,3.5376,3.5371,3.537,3.5372,3.5418,3.5419,3.542,3.5421,0,3.5259,3.5255,3.5275,3.5294,3.531,3.5324,3.5336,3.5349,3.5335,3.5352,3.5376,3.5389,3.5414,3.5436,3.5452,3.5455,3.5436,3.5433,3.5442,3.5448,3.5452,3.5451,3.5326,3.5431,3.543,3.5429,3.5429,3.5428,3.533,3.5354,3.5363,3.5386,3.5393,3.5405,3.5427,3.5425,3.5445,3.5465,3.5455,3.5484,3.5491,3.5511,3.5516,3.5537,3.5521,3.5534,3.5538,3.5542,3.5547,3.5448,3.554,3.554,3.5539,3.5539,3.5539,0,3.5426,3.543,3.5451,3.547,3.5488,3.5469,3.5481,3.5497,3.5523,3.5531,3.5548,3.5576,3.5597,3.5595,3.5614,3.5632,3.5624,3.5637,3.5636,3.5637,3.556,3.555,3.5644,3.5644,3.5644,3.5644,3.5643,3.5643,3.5477,3.5517,3.5513,3.5556,3.5559,3.5588,3.5596,3.5607,3.5614,3.5646,3.5664,3.5663,3.5668,3.5687,3.5705,3.5704,3.5712,3.5729,3.5725,3.5653,3.5643,3.5633,3.5624,3.5731,3.5731,3.5801,3.5801,3.5802]}]]